Other Public Products
Issued by NWS Charleston, SC

Home | Current Version | Previous Version | Text Only | Print | Product List | Glossary On
Versions: 1 2 3 4 5 6 7 8 9 10 11 12 13 14 15 16 17 18 19 20 21 22 23 24 25 26 27 28 29 30 31 32 33 34 35 36 37 38 39 40 41 42 43 44 45 46 47 48 49 50
000
FPUS82 KCHS 200527
OPUCHS

TEST...KCHS/KSAV Gateway Observations...TEST
National Weather Service Charleston SC
1200 AM EST MON NOV 20 2017

NOTE: "fair" indicates few or no clouds below 12,000 feet with no
significant weather and/or obstructions to visibility.

SCZ050-WAZ558-NCZ071-TXZ119-213-PAZ071-DCZ001-FLZ074-172-MI076-
NYZ176-178-MAZ016-IL014-TNZ027-NJZ106-GAZ044-MD014-200600-

...Gateway Observations for Charleston International...

CITY           SKY/WX    TMP DP  RH WIND       PRES   REMARKS
Chas Airport   CLEAR     40  37  89 N8        30.09R WCI  34
Seattle        LGT RAIN  43  41  93 S3        29.63S
Charlotte      CLEAR     36  28  73 NW5       30.10R WCI  32
Dallas DFW     PTCLDY    48  33  56 SE5       30.21F
Dallas Love    PTCLDY    48  31  51 SE8       30.23F
Philladelphia  PTCLDY    40  25  55 W13       29.90R WCI  32
Wash National  MOCLDY    43  28  55 NW6       29.98R
Baltimore      MOCLDY    41  27  57 W18       29.95R
Miami          PTCLDY    73  68  84 W3        29.98S
Detroit        CLOUDY    30  21  69 SW8       30.02R WCI  22
Newark         MOCLDY    40  29  64 W14       29.81R WCI  32
Laguardia      CLOUDY    42  31  64 W15G23    29.79R
J F K          PTCLDY    41  30  65 W20G25    29.81R
Boston Logan   PTCLDY    38  24  57 W17G24    29.64R WCI  28
Ft. Lauderdale PTCLDY    71  68  90 NW3       29.97S
Chicago O`Hare PTCLDY    30  20  66 SW9       30.05F WCI  22
Chicago Midway PTCLDY    31  21  66 SW8       30.07F WCI  23
Houston Bush   CLOUDY    48  38  68 CALM      30.24F
Houston Hobby  MOCLDY    53  37  54 NE5       30.24S
Nashville      CLEAR     33  24  69 CALM      30.26R
Atlanta        CLEAR     39  30  70 NW7       30.16R WCI  34

$$

GAZ044-118-TXZ119-213-NCZ071-DCZ001-MDZ014-506-PAZ021-071-NJZ106-
NYZ176-178-MAZ106-OHZ011-021-055-MIZ076-KYZ091-ILZ014-INZ047-
MNZ060-ONZ431-200600-

...Gateway Observations for Savannah International...

CITY           SKY/WX    TMP DP  RH WIND       PRES   REMARKS
Savannah Arpt  CLEAR     44  34  67 NW3       30.11R
Atlanta        CLEAR     39  30  70 NW7       30.16R WCI  34
Charlotte      CLEAR     36  28  73 NW5       30.10R WCI  32
Dallas DFW     PTCLDY    48  33  56 SE5       30.21F
Houston Bush   CLOUDY    48  38  68 CALM      30.24F
Wash National  MOCLDY    43  28  55 NW6       29.98R
Wash Dulles    MOCLDY    41  28  60 NW8       29.97R
Baltimore      MOCLDY    41  27  57 W18       29.95R
Philadelphia   PTCLDY    40  25  55 W13       29.90R WCI  32
Newark         MOCLDY    40  29  64 W14       29.81R WCI  32
Laguardia      CLOUDY    42  31  64 W15G23    29.79R
J F K          PTCLDY    41  30  65 W20G25    29.81R
Boston         PTCLDY    38  24  57 W17G24    29.64R WCI  28
Pittsburg      CLOUDY    33  21  61 W17G26    30.00R WCI  22
Akron          CLOUDY    31  19  61 W12       30.04R WCI  22
Cleveland      CLOUDY    32  22  66 W16       30.06R WCI  21
Cincinnati     CLEAR     29  24  82 SW3       30.16S
Columbus       CLOUDY    30  23  74 W9        30.14S WCI  22
Detroit        CLOUDY    30  21  69 SW8       30.02R WCI  22
Chicago O`Hare PTCLDY    30  20  66 SW9       30.05F WCI  22
Minneapolis    CLOUDY    37  27  67 SW3       29.79F
Indianapolis   CLEAR     26  21  81 SW8       30.15F WCI  18
Toronto Canada CLOUDY    30  23  74 W5        29.85R WCI  25

$$




USA.gov is the U.S. government's official web portal to all federal, state and local government web resources and services.